| time (UTC) | temp F | wind direction | speed knots | gust knots | rain 1hr in | rain 24hr in | rain mn in | humidity % | barometer mb |
| 20260507104544 | 54 | 18 | 0.0 | 3.5 | 0.00 | 0.22 | 0.07 | 77 | 1012.2 |
| 20260507103042 | 54 | 291 | 0.0 | 3.5 | 0.00 | 0.22 | 0.07 | 77 | 1012.1 |
| 20260507101551 | 54 | 330 | 0.0 | 2.6 | 0.00 | 0.22 | 0.07 | 82 | 1011.9 |
| 20260507100041 | 54 | 311 | 0.0 | 1.7 | 0.00 | 0.22 | 0.07 | 87 | 1011.9 |
| 20260507094542 | 54 | 102 | 0.0 | 2.6 | 0.00 | 0.22 | 0.07 | 87 | 1012.0 |
| 20260507093044 | 54 | 299 | 0.0 | 1.7 | 0.00 | 0.22 | 0.07 | 87 | 1011.6 |
| 20260507091539 | 54 | 285 | 0.0 | 1.7 | 0.00 | 0.22 | 0.07 | 86 | 1012.1 |
| 20260507090037 | 54 | 340 | 0.0 | 1.7 | 0.00 | 0.22 | 0.07 | 86 | 1011.8 |
| 20260507084534 | 54 | 285 | 0.0 | 1.7 | 0.00 | 0.22 | 0.07 | 86 | 1011.5 |
| 20260507083036 | 54 | 274 | 0.9 | 1.7 | 0.00 | 0.22 | 0.07 | 85 | 1011.6 |
| 20260507081536 | 54 | 309 | 0.0 | 2.6 | 0.00 | 0.22 | 0.07 | 84 | 1011.2 |
| 20260507080030 | 55 | 345 | 0.9 | 6.1 | 0.00 | 0.22 | 0.07 | 82 | 1011.0 |
| 20260507074526 | 55 | 212 | 1.7 | 6.1 | 0.00 | 0.22 | 0.07 | 86 | 1010.8 |
| 20260507073024 | 56 | 1 | 1.7 | 4.3 | 0.00 | 0.22 | 0.07 | 87 | 1010.6 |
| 20260507071527 | 56 | 293 | 0.9 | 4.3 | 0.01 | 0.22 | 0.07 | 87 | 1010.5 |
| 20260507070023 | 56 | 355 | 1.7 | 7.8 | 0.01 | 0.22 | 0.07 | 87 | 1010.4 |
| 20260507064521 | 56 | 318 | 1.7 | 6.1 | 0.01 | 0.22 | 0.07 | 89 | 1010.5 |
| 20260507063021 | 56 | 345 | 1.7 | 5.2 | 0.01 | 0.22 | 0.07 | 89 | 1010.3 |
| 20260507061519 | 57 | 278 | 0.0 | 7.0 | 0.01 | 0.21 | 0.06 | 88 | 1010.3 |
| 20260507060021 | 57 | 284 | 0.9 | 5.2 | 0.03 | 0.21 | 0.06 | 88 | 1010.3 |
| 20260507054512 | 57 | 260 | 1.7 | 6.1 | 0.03 | 0.21 | 0.06 | 87 | 1010.6 |
| 20260507053009 | 58 | 270 | 0.9 | 2.6 | 0.06 | 0.21 | 0.06 | 85 | 1010.2 |
| 20260507051505 | 60 | 293 | 2.6 | 7.8 | 0.05 | 0.20 | 0.05 | 82 | 1010.8 |
| 20260507050007 | 61 | 269 | 1.7 | 7.8 | 0.03 | 0.18 | 0.03 | 85 | 1010.7 |
| 20260507044559 | 61 | 293 | 0.0 | 1.7 | 0.03 | 0.18 | 0.03 | 83 | 1010.5 |
| 20260507043100 | 63 | 269 | 0.9 | 5.2 | 0.00 | 0.15 | 0.00 | 77 | 1010.7 |
| 20260507041602 | 63 | 301 | 0.9 | 6.1 | 0.00 | 0.15 | 0.00 | 76 | 1010.2 |
| 20260507040055 | 63 | 279 | 0.9 | 4.3 | 0.01 | 0.15 | 0.00 | 76 | 1009.7 |
| 20260507034549 | 63 | 249 | 0.9 | 6.1 | 0.01 | 0.15 | 0.15 | 78 | 1010.0 |
| 20260507033047 | 63 | 273 | 1.7 | 6.1 | 0.01 | 0.15 | 0.15 | 81 | 1010.0 |
| 20260507031546 | 64 | 294 | 1.7 | 7.0 | 0.01 | 0.15 | 0.15 | 83 | 1009.7 |
| 20260507030045 | 67 | 268 | 1.7 | 7.0 | 0.00 | 0.14 | 0.14 | 80 | 1009.7 |
| 20260507024545 | 67 | 295 | 3.5 | 6.1 | 0.00 | 0.14 | 0.14 | 79 | 1009.4 |
| 20260507023054 | 67 | 282 | 0.9 | 2.6 | 0.00 | 0.14 | 0.14 | 79 | 1009.1 |
| 20260507021550 | 67 | 280 | 1.7 | 6.1 | 0.00 | 0.14 | 0.14 | 79 | 1009.0 |
| 20260507020044 | 67 | 112 | 0.0 | 1.7 | 0.00 | 0.14 | 0.14 | 80 | 1008.9 |
| 20260507014555 | 68 | 112 | 0.0 | 1.7 | 0.00 | 0.14 | 0.14 | 79 | 1008.8 |
| 20260507013058 | 68 | 100 | 0.0 | 1.7 | 0.00 | 0.14 | 0.14 | 79 | 1009.1 |
| 20260507011542 | 68 | 96 | 0.0 | 1.7 | 0.00 | 0.14 | 0.14 | 78 | 1009.3 |
| 20260507010042 | 68 | 93 | 0.0 | 1.7 | 0.00 | 0.14 | 0.14 | 78 | 1009.3 |
| 20260507004541 | 68 | 93 | 0.0 | 1.7 | 0.00 | 0.14 | 0.14 | 78 | 1008.9 |
| 20260507003040 | 68 | 93 | 0.0 | 1.7 | 0.00 | 0.14 | 0.14 | 78 | 1008.8 |
| 20260507001555 | 68 | 93 | 0.0 | 1.7 | 0.00 | 0.14 | 0.14 | 77 | 1008.8 |
| 20260507000040 | 68 | 32 | 0.0 | 1.7 | 0.00 | 0.14 | 0.14 | 77 | 1008.8 |
| 20260506234538 | 68 | 70 | 0.0 | 1.7 | 0.00 | 0.14 | 0.14 | 76 | 1008.6 |
| 20260506233044 | 69 | 83 | 0.0 | 1.7 | 0.00 | 0.14 | 0.14 | 76 | 1008.5 |
| 20260506231541 | 69 | 116 | 0.0 | 2.6 | 0.00 | 0.14 | 0.14 | 74 | 1008.3 |
| 20260506230037 | 69 | 70 | 0.9 | 3.5 | 0.00 | 0.14 | 0.14 | 74 | 1008.2 |
| 20260506224537 | 69 | 104 | 0.9 | 2.6 | 0.00 | 0.14 | 0.14 | 74 | 1008.2 |
| 20260506223035 | 70 | 103 | 0.0 | 2.6 | 0.00 | 0.14 | 0.14 | 74 | 1008.3 |
| 20260506221535 | 70 | 154 | 0.0 | 1.7 | 0.00 | 0.14 | 0.14 | 74 | 1008.3 |
| 20260506220035 | 70 | 85 | 0.0 | 2.6 | 0.00 | 0.14 | 0.14 | 73 | 1008.2 |
| 20260506214533 | 70 | 78 | 0.9 | 4.3 | 0.00 | 0.14 | 0.14 | 73 | 1008.4 |
| 20260506213036 | 71 | 119 | 0.9 | 4.3 | 0.00 | 0.14 | 0.14 | 71 | 1008.1 |
| 20260506211532 | 71 | 79 | 0.0 | 5.2 | 0.00 | 0.14 | 0.14 | 73 | 1007.9 |
| 20260506210037 | 72 | 49 | 0.0 | 5.2 | 0.00 | 0.14 | 0.14 | 72 | 1007.9 |
| 20260506204530 | 71 | 138 | 0.0 | 3.5 | 0.00 | 0.14 | 0.14 | 73 | 1007.6 |
| 20260506203037 | 72 | 108 | 0.0 | 3.5 | 0.00 | 0.14 | 0.14 | 72 | 1007.8 |
| 20260506201529 | 71 | 311 | 0.9 | 7.0 | 0.00 | 0.14 | 0.14 | 72 | 1007.8 |
| 20260506200027 | 71 | 116 | 0.9 | 4.3 | 0.00 | 0.14 | 0.14 | 73 | 1007.8 |
| 20260506194525 | 70 | 72 | 1.7 | 7.0 | 0.00 | 0.14 | 0.14 | 73 | 1007.8 |
| 20260506193024 | 71 | 90 | 0.9 | 5.2 | 0.00 | 0.14 | 0.14 | 71 | 1007.9 |
| 20260506191522 | 71 | 76 | 0.9 | 5.2 | 0.00 | 0.14 | 0.14 | 72 | 1008.0 |
| 20260506190020 | 70 | 106 | 0.0 | 5.2 | 0.00 | 0.14 | 0.14 | 74 | 1008.1 |
| 20260506184520 | 69 | 99 | 0.0 | 4.3 | 0.00 | 0.14 | 0.14 | 74 | 1008.4 |
| 20260506183016 | 69 | 51 | 0.0 | 6.1 | 0.00 | 0.14 | 0.14 | 75 | 1008.5 |
| 20260506181519 | 69 | 87 | 0.9 | 8.7 | 0.00 | 0.14 | 0.14 | 75 | 1008.6 |
| 20260506180022 | 68 | 112 | 1.7 | 9.6 | 0.00 | 0.14 | 0.14 | 76 | 1008.9 |
| 20260506174512 | 67 | 85 | 1.7 | 6.1 | 0.00 | 0.14 | 0.14 | 77 | 1008.8 |
| 20260506173010 | 67 | 48 | 0.9 | 8.7 | 0.00 | 0.14 | 0.14 | 80 | 1008.8 |
| 20260506171509 | 66 | 224 | 2.6 | 6.1 | 0.00 | 0.14 | 0.14 | 81 | 1009.1 |
| 20260506170008 | 66 | 81 | 1.7 | 7.0 | 0.00 | 0.14 | 0.14 | 82 | 1009.0 |
| 20260506164506 | 64 | 281 | 0.9 | 9.6 | 0.00 | 0.14 | 0.14 | 85 | 1009.2 |
| 20260506163014 | 64 | 339 | 0.9 | 5.2 | 0.01 | 0.14 | 0.14 | 87 | 1009.1 |
| 20260506161510 | 63 | 88 | 1.7 | 3.5 | 0.01 | 0.14 | 0.14 | 88 | 1009.2 |
| 20260506160005 | 62 | 360 | 0.9 | 4.3 | 0.02 | 0.14 | 0.14 | 89 | 1009.6 |
| 20260506154501 | 62 | 154 | 1.7 | 6.1 | 0.03 | 0.14 | 0.14 | 89 | 1009.7 |
| 20260506153059 | 62 | 91 | 0.9 | 3.5 | 0.07 | 0.13 | 0.13 | 89 | 1009.3 |
| 20260506151558 | 61 | 336 | 0.9 | 4.3 | 0.09 | 0.13 | 0.13 | 89 | 1010.1 |
| 20260506150104 | 62 | 66 | 0.9 | 3.5 | 0.09 | 0.12 | 0.12 | 89 | 1010.3 |
| 20260506144555 | 61 | 295 | 0.9 | 7.8 | 0.10 | 0.11 | 0.11 | 88 | 1010.4 |
| 20260506143052 | 62 | 100 | 0.0 | 3.5 | 0.06 | 0.06 | 0.06 | 86 | 1010.4 |
| 20260506141551 | 62 | 123 | 0.9 | 4.3 | 0.04 | 0.04 | 0.04 | 85 | 1010.3 |
| 20260506140049 | 63 | 7 | 0.0 | 2.6 | 0.02 | 0.02 | 0.02 | 82 | 1010.5 |
| 20260506134610 | 64 | 81 | 0.9 | 3.5 | 0.01 | 0.01 | 0.01 | 79 | 1010.7 |
| 20260506133043 | 64 | 111 | 0.9 | 5.2 | 0.00 | 0.00 | 0.00 | 76 | 1010.7 |
| 20260506131600 | 64 | 81 | 0.0 | 5.2 | 0.00 | 0.00 | 0.00 | 76 | 1010.3 |
| 20260506130041 | 65 | 111 | 0.9 | 6.1 | 0.00 | 0.00 | 0.00 | 75 | 1010.1 |
| 20260506124539 | 65 | 122 | 0.9 | 4.3 | 0.00 | 0.00 | 0.00 | 74 | 1010.1 |
| 20260506123044 | 65 | 89 | 0.9 | 2.6 | 0.00 | 0.00 | 0.00 | 73 | 1010.4 |
| 20260506121604 | 65 | 134 | 0.9 | 5.2 | 0.00 | 0.00 | 0.00 | 72 | 1010.5 |
| 20260506120053 | 66 | 83 | 0.9 | 7.0 | 0.00 | 0.00 | 0.00 | 72 | 1010.5 |
| 20260506114554 | 66 | 27 | 0.9 | 5.2 | 0.00 | 0.00 | 0.00 | 71 | 1010.2 |
| 20260506113050 | 66 | 71 | 2.6 | 7.0 | 0.00 | 0.00 | 0.00 | 70 | 1010.0 |
| 20260506111607 | 66 | 89 | 1.7 | 5.2 | 0.00 | 0.00 | 0.00 | 71 | 1009.9 |
| 20260506110051 | 65 | 120 | 0.9 | 3.5 | 0.00 | 0.00 | 0.00 | 72 | 1009.8 |